TimeCDT,TemperatureF,Dew PointF,Humidity,Sea Level PressureIn,VisibilityMPH,Wind Direction,Wind SpeedMPH,Gust SpeedMPH,PrecipitationIn,Events,Conditions,WindDirDegrees,DateUTC
12:15 AM,61.0,52.7,74,30.05,10.0,ESE,6.9,-,N/A,,Scattered Clouds,120,2013-10-11 05:15:00
12:35 AM,59.9,52.7,77,30.05,10.0,ESE,4.6,-,N/A,,Mostly Cloudy,120,2013-10-11 05:35:00
12:55 AM,60.3,53.1,77,30.05,10.0,SE,4.6,-,N/A,,Overcast,130,2013-10-11 05:55:00
1:15 AM,60.3,52.9,77,30.05,10.0,ESE,5.8,-,N/A,,Mostly Cloudy,120,2013-10-11 06:15:00
1:55 AM,57.4,52.3,83,30.05,10.0,ESE,4.6,-,N/A,,Scattered Clouds,120,2013-10-11 06:55:00
2:15 AM,58.1,53.2,84,30.05,10.0,SE,3.5,-,N/A,,Mostly Cloudy,130,2013-10-11 07:15:00
2:35 AM,58.3,53.2,83,30.05,10.0,SE,4.6,-,N/A,,Mostly Cloudy,130,2013-10-11 07:35:00
2:55 AM,57.7,52.9,84,30.05,10.0,SE,4.6,-,N/A,,Scattered Clouds,130,2013-10-11 07:55:00
3:15 AM,57.0,52.7,85,30.04,10.0,ESE,4.6,-,N/A,,Mostly Cloudy,120,2013-10-11 08:15:00
3:35 AM,57.2,52.7,85,30.04,10.0,SE,4.6,-,N/A,,Scattered Clouds,130,2013-10-11 08:35:00
3:55 AM,57.6,52.7,84,30.05,10.0,SE,4.6,-,N/A,,Clear,140,2013-10-11 08:55:00
4:15 AM,56.8,52.5,85,30.06,10.0,SE,3.5,-,N/A,,Scattered Clouds,130,2013-10-11 09:15:00
4:35 AM,57.7,53.2,85,30.06,10.0,Calm,Calm,-,N/A,,Mostly Cloudy,0,2013-10-11 09:35:00
4:55 AM,57.6,52.9,84,30.07,10.0,Calm,Calm,-,N/A,,Scattered Clouds,0,2013-10-11 09:55:00
5:15 AM,56.7,52.3,85,30.07,10.0,ESE,3.5,-,N/A,,Clear,110,2013-10-11 10:15:00
5:35 AM,56.3,52.3,87,30.07,7.0,SE,3.5,-,N/A,,Scattered Clouds,130,2013-10-11 10:35:00
5:55 AM,56.3,52.7,88,30.08,7.0,Calm,Calm,-,N/A,,Scattered Clouds,0,2013-10-11 10:55:00
6:15 AM,54.5,50.9,88,30.08,5.0,Calm,Calm,-,N/A,,Scattered Clouds,0,2013-10-11 11:15:00
6:35 AM,54.0,50.9,89,30.08,7.0,Calm,Calm,-,N/A,,Clear,0,2013-10-11 11:35:00
6:55 AM,54.5,51.8,91,30.08,2.5,ESE,3.5,-,N/A,,Clear,110,2013-10-11 11:55:00
7:15 AM,53.8,51.3,91,30.08,2.5,ESE,3.5,-,N/A,,Clear,110,2013-10-11 12:15:00
7:35 AM,55.2,52.3,90,30.08,4.0,ESE,4.6,-,N/A,,Clear,120,2013-10-11 12:35:00
7:55 AM,58.3,54.0,86,30.08,7.0,ESE,4.6,-,N/A,,Clear,120,2013-10-11 12:55:00
8:15 AM,60.4,54.0,79,30.08,10.0,SE,4.6,-,N/A,,Clear,130,2013-10-11 13:15:00
8:35 AM,62.4,54.3,75,30.08,10.0,SE,5.8,-,N/A,,Scattered Clouds,140,2013-10-11 13:35:00
8:55 AM,64.4,54.0,69,30.08,10.0,SE,5.8,-,N/A,,Clear,140,2013-10-11 13:55:00
9:15 AM,66.2,54.1,65,30.08,10.0,SSE,5.8,-,N/A,,Clear,150,2013-10-11 14:15:00
9:35 AM,67.8,54.5,62,30.08,10.0,South,6.9,-,N/A,,Clear,170,2013-10-11 14:35:00
9:55 AM,69.3,54.5,59,30.08,10.0,SSE,6.9,-,N/A,,Mostly Cloudy,160,2013-10-11 14:55:00
10:15 AM,70.7,54.7,57,30.08,10.0,South,6.9,-,N/A,,Scattered Clouds,170,2013-10-11 15:15:00
10:35 AM,71.8,54.7,55,30.07,10.0,South,6.9,-,N/A,,Clear,190,2013-10-11 15:35:00
10:55 AM,73.4,55.2,53,30.07,10.0,SSE,5.8,-,N/A,,Clear,150,2013-10-11 15:55:00
11:15 AM,74.3,55.0,51,30.07,10.0,SSE,8.1,-,N/A,,Clear,150,2013-10-11 16:15:00
11:35 AM,75.0,55.0,50,30.07,10.0,South,8.1,-,N/A,,Clear,190,2013-10-11 16:35:00
11:55 AM,75.9,54.9,48,30.06,10.0,South,9.2,-,N/A,,Clear,170,2013-10-11 16:55:00
12:15 PM,75.4,54.5,48,30.05,10.0,SE,6.9,-,N/A,,Scattered Clouds,130,2013-10-11 17:15:00
12:35 PM,74.8,54.3,49,30.05,10.0,South,9.2,-,N/A,,Mostly Cloudy,190,2013-10-11 17:35:00
12:55 PM,74.8,54.7,49,30.03,10.0,SSW,5.8,-,N/A,,Mostly Cloudy,200,2013-10-11 17:55:00
1:15 PM,75.0,54.7,49,30.03,10.0,SSE,6.9,-,N/A,,Mostly Cloudy,160,2013-10-11 18:15:00
1:35 PM,77.5,53.8,44,30.02,10.0,SSE,9.2,-,N/A,,Mostly Cloudy,150,2013-10-11 18:35:00
1:55 PM,78.8,54.1,42,30.01,10.0,SE,9.2,-,N/A,,Mostly Cloudy,130,2013-10-11 18:55:00
2:15 PM,78.6,52.9,41,30.00,10.0,SSE,10.4,-,N/A,,Overcast,160,2013-10-11 19:15:00
2:35 PM,78.4,51.8,39,30.00,10.0,SSE,9.2,-,N/A,,Mostly Cloudy,160,2013-10-11 19:35:00
2:55 PM,78.3,52.0,40,30.00,10.0,South,5.8,-,N/A,,Scattered Clouds,170,2013-10-11 19:55:00
3:15 PM,78.6,51.6,39,30.00,10.0,South,5.8,-,N/A,,Scattered Clouds,170,2013-10-11 20:15:00
3:35 PM,79.2,52.0,39,29.99,10.0,SSE,9.2,-,N/A,,Scattered Clouds,150,2013-10-11 20:35:00
3:55 PM,78.6,51.3,38,29.98,10.0,South,8.1,-,N/A,,Scattered Clouds,180,2013-10-11 20:55:00
4:15 PM,78.4,51.3,39,29.98,10.0,SSE,6.9,-,N/A,,Scattered Clouds,160,2013-10-11 21:15:00
4:35 PM,77.7,51.3,40,29.98,10.0,SE,11.5,-,N/A,,Clear,140,2013-10-11 21:35:00
4:55 PM,77.2,51.6,41,29.97,10.0,SSE,5.8,-,N/A,,Clear,160,2013-10-11 21:55:00
5:15 PM,76.5,52.2,43,29.97,10.0,SE,12.7,16.1,N/A,,Clear,140,2013-10-11 22:15:00
5:35 PM,75.4,51.8,44,29.97,10.0,SE,8.1,-,N/A,,Clear,140,2013-10-11 22:35:00
5:55 PM,73.8,52.3,47,29.97,10.0,SE,5.8,-,N/A,,Clear,140,2013-10-11 22:55:00
6:15 PM,72.1,52.7,50,29.97,10.0,SE,6.9,-,N/A,,Clear,140,2013-10-11 23:15:00
6:35 PM,70.0,52.9,55,29.97,10.0,SE,5.8,-,N/A,,Clear,130,2013-10-11 23:35:00
6:55 PM,66.7,53.2,62,29.97,10.0,ESE,5.8,-,N/A,,Clear,120,2013-10-11 23:55:00
7:15 PM,66.4,53.4,63,29.97,10.0,ESE,5.8,-,N/A,,Clear,120,2013-10-12 00:15:00
7:35 PM,65.7,53.2,64,29.98,10.0,ESE,5.8,-,N/A,,Clear,120,2013-10-12 00:35:00
7:55 PM,64.8,53.1,66,29.98,10.0,SE,5.8,-,N/A,,Clear,130,2013-10-12 00:55:00
8:15 PM,63.1,53.1,70,29.99,10.0,SE,3.5,-,N/A,,Clear,130,2013-10-12 01:15:00
8:35 PM,63.1,52.9,69,30.00,10.0,SSE,3.5,-,N/A,,Clear,150,2013-10-12 01:35:00
8:55 PM,63.1,53.4,71,30.00,10.0,SE,3.5,-,N/A,,Clear,140,2013-10-12 01:55:00
9:15 PM,60.6,52.7,75,30.00,10.0,SE,4.6,-,N/A,,Clear,130,2013-10-12 02:15:00
9:35 PM,60.8,53.1,76,30.01,10.0,SE,4.6,-,N/A,,Clear,140,2013-10-12 02:35:00
9:55 PM,60.1,53.1,78,30.00,10.0,SE,5.8,-,N/A,,Clear,130,2013-10-12 02:55:00
10:15 PM,60.3,53.4,78,30.01,10.0,SE,3.5,-,N/A,,Clear,130,2013-10-12 03:15:00
10:35 PM,59.9,52.7,77,30.01,10.0,SE,3.5,-,N/A,,Clear,130,2013-10-12 03:35:00
10:55 PM,59.0,52.3,79,30.01,10.0,SE,4.6,-,N/A,,Clear,130,2013-10-12 03:55:00
11:15 PM,59.0,53.4,82,30.01,10.0,ESE,3.5,-,N/A,,Clear,120,2013-10-12 04:15:00
11:35 PM,58.1,53.4,84,30.01,10.0,ESE,4.6,-,N/A,,Clear,120,2013-10-12 04:35:00
11:55 PM,57.4,53.2,86,30.01,10.0,ESE,5.8,-,N/A,,Clear,120,2013-10-12 04:55:00